Weather History for KLGU - February, 2014

Change the Weather History Date:

Thursday, February 27, 2014

  Actual Average Record
Temperature  
Mean Temperature 39 °F -  
Max Temperature 46 °F 42 °F 61 °F (1986)
Min Temperature 32 °F 20 °F -8 °F (1962)
Degree Days  
Heating Degree Days 26    
Moisture  
Dew Point 36 °F    
Average Humidity 88    
Maximum Humidity 93    
Minimum Humidity 80    
Precipitation  
Precipitation 0.39 in - - ()
Sea Level Pressure  
Sea Level Pressure 29.71 in    
Wind  
Wind Speed 3 mph (SE)    
Max Wind Speed 17 mph    
Max Gust Speed 23 mph    
Visibility 9 miles    
Events Rain    
Averages and records for this station are not official NWS values.
T = Trace of Precipitation, MM = Missing Value Source: NWS Daily Summary

Daily Weather History Graph

Daily Weather History Graph

Search for Another Location

Airport or City:

Trip Planner

Search our weather history database for the weather conditions in past years. The results will help you decide how hot, cold, wet, or windy it might be!

Date:

Astronomy

Feb. 27, 2014 Rise Set
Actual Time 7:05 AM MST 6:15 PM MST
Civil Twilight 6:37 AM MST 6:43 PM MST
Nautical Twilight 6:05 AM MST 7:15 PM MST
Astronomical Twilight 5:32 AM MST 7:48 PM MST
Moon 5:41 AM MST (2/27) 4:44 PM MST (2/27)
Length of Visible Light 12h 06m
Length of Day
11h 10m
Waning Crescent, 4% of the Moon is Illuminated
Feb 27
Waning Crescent
Mar 1
New
Mar 8
First Quarter
Mar 16
Full
Mar 23
Last Quarter

Hourly Weather History & Observations

Time (MST) Temp. Windchill Dew Point Humidity Pressure Visibility Wind Dir Wind Speed Gust Speed Precip Events Conditions
12:51 AM 33.1 °F - 28.9 °F 85% 29.81 in 10.0 mi Calm Calm - N/A   Partly Cloudy
1:51 AM 34.0 °F 31.0 °F 30.0 °F 85% 29.80 in 10.0 mi SW 3.5 mph - N/A   Mostly Cloudy
2:51 AM 33.1 °F - 30.0 °F 89% 29.76 in 10.0 mi Calm Calm - N/A   Overcast
3:51 AM 34.0 °F 27.2 °F 30.9 °F 89% 29.73 in 10.0 mi NE 8.1 mph - N/A   Mostly Cloudy
4:51 AM 32.0 °F 28.7 °F 28.9 °F 88% 29.72 in 10.0 mi ENE 3.5 mph - N/A   Clear
5:51 AM 33.1 °F 27.7 °F 30.0 °F 89% 29.72 in 10.0 mi SSW 5.8 mph - N/A   Mostly Cloudy
6:51 AM 33.1 °F 27.7 °F 30.0 °F 89% 29.72 in 8.0 mi ENE 5.8 mph - N/A   Overcast
7:51 AM 33.1 °F 28.7 °F 30.9 °F 92% 29.71 in 6.0 mi NW 4.6 mph - N/A   Overcast
8:51 AM 36.0 °F - 32.0 °F 86% 29.73 in 10.0 mi Calm Calm - N/A   Overcast
9:51 AM 37.0 °F - 33.1 °F 86% 29.70 in 10.0 mi Calm Calm - 0.00 in   Overcast
10:51 AM 39.0 °F 36.8 °F 36.0 °F 89% 29.70 in 4.0 mi SSW 3.5 mph - 0.02 in Rain Light Rain
11:51 AM 41.0 °F - 37.9 °F 89% 29.68 in 7.0 mi Calm Calm - 0.04 in Rain Light Rain
12:51 PM 42.1 °F 39.2 °F 39.9 °F 92% 29.65 in 10.0 mi NNW 4.6 mph - 0.00 in Rain Light Rain
1:51 PM 45.0 °F - 42.1 °F 90% 29.62 in 7.0 mi Calm Calm - 0.00 in Rain Light Rain
2:51 PM 46.9 °F - 41.0 °F 80% 29.61 in 10.0 mi Calm Calm - 0.01 in   Overcast
3:28 PM 46.0 °F 42.5 °F 41.0 °F 83% 29.63 in 6.0 mi WNW 6.9 mph - 0.01 in Rain Light Rain
3:51 PM 44.1 °F 36.5 °F 41.0 °F 89% 29.64 in 5.0 mi NNW 17.3 mph 23.0 mph 0.03 in Rain Light Rain
4:39 PM 42.1 °F 40.2 °F 39.0 °F 89% 29.66 in 10.0 mi ESE 3.5 mph - 0.04 in Rain Light Rain
4:51 PM 42.1 °F 37.7 °F 39.0 °F 89% 29.66 in 9.0 mi South 6.9 mph - 0.04 in Rain Light Rain
5:51 PM 42.1 °F 38.4 °F 39.0 °F 89% 29.69 in 10.0 mi SSE 5.8 mph - 0.04 in Rain Light Rain
6:41 PM 42.1 °F 40.2 °F 39.0 °F 89% 29.71 in 8.0 mi South 3.5 mph - 0.01 in Rain Light Rain
6:51 PM 42.1 °F 40.2 °F 37.9 °F 85% 29.71 in 10.0 mi SSW 3.5 mph - 0.02 in Rain Light Rain
7:51 PM 39.9 °F 34.5 °F 37.0 °F 89% 29.74 in 10.0 mi South 8.1 mph - 0.03 in Rain Light Rain
8:51 PM 39.9 °F - 37.9 °F 93% 29.75 in 10.0 mi Calm Calm - 0.05 in Rain Light Rain
9:51 PM 39.9 °F 36.7 °F 37.0 °F 89% 29.78 in 10.0 mi SSE 4.6 mph - 0.08 in Rain Light Rain
10:28 PM 39.0 °F 32.8 °F 36.0 °F 89% 29.78 in 10.0 mi East 9.2 mph - 0.03 in Rain Light Rain
10:51 PM 39.0 °F 34.0 °F 36.0 °F 89% 29.78 in 10.0 mi East 6.9 mph - 0.03 in   Overcast
11:51 PM 39.9 °F 37.8 °F 35.1 °F 83% 29.76 in 10.0 mi East 3.5 mph - N/A   Scattered Clouds